This is the latest recevied weather packets stored in our database for station/object KQ4PPF. If no packets are shown the sender has not sent any weather packets the latest 10 day(s).
| Time | Temp. | Humidity | Pressure | Rain* | Wind** | Luminosity | Snow |
|---|---|---|---|---|---|---|---|
| 1777727807 | 13.33° C | 60% | 1014.6 hPa | 0 mm | - | 117 W/m² | - |
| 1777727504 | 13.33° C | 62% | 1014.7 hPa | 0 mm | - | 103 W/m² | - |
| 1777727202 | 12.78° C | 63% | 1014.6 hPa | 0 mm | - | 111 W/m² | - |
| 1777726900 | 12.78° C | 66% | 1014.8 hPa | 0 mm | - | 93 W/m² | - |
| 1777726595 | 12.22° C | 65% | 1014.9 hPa | 0 mm | - | 106 W/m² | - |
| 1777726293 | 11.67° C | 66% | 1014.7 hPa | 0 mm | - | 68 W/m² | - |
| 1777725989 | 12.22° C | 66% | 1014.6 hPa | 0 mm | - | 69 W/m² | - |
| 1777725686 | 12.22° C | 67% | 1014.7 hPa | 0 mm | - | 89 W/m² | - |
| 1777725385 | 11.67° C | 67% | 1014.6 hPa | 0 mm | - | 101 W/m² | - |
| 1777725081 | 11.67° C | 69% | 1014.5 hPa | 0 mm | - | 79 W/m² | - |
| 1777724778 | 11.11° C | 69% | 1014.6 hPa | 0 mm | - | 63 W/m² | - |
| 1777724475 | 11.11° C | 69% | 1014.2 hPa | 0 mm | - | 60 W/m² | - |
| 1777724173 | 11.11° C | 69% | 1014.5 hPa | 0 mm | - | 55 W/m² | - |
| 1777723870 | 11.11° C | 69% | 1014.5 hPa | 0 mm | - | 51 W/m² | - |
| 1777723566 | 11.11° C | 70% | 1014.3 hPa | 0 mm | - | 47 W/m² | - |
| 1777723263 | 10.56° C | 70% | 1014.2 hPa | 0 mm | - | 27 W/m² | - |
| 1777722962 | 10.56° C | 70% | 1014.2 hPa | 0 mm | - | 28 W/m² | - |
| 1777722657 | 10.56° C | 70% | 1014.3 hPa | 0 mm | - | 24 W/m² | - |
| 1777722353 | 10.56° C | 70% | 1014.4 hPa | 0 mm | - | 12 W/m² | - |
| 1777722050 | 10.56° C | 70% | 1014.3 hPa | 0 mm | - | 12 W/m² | - |
| 1777721748 | 10.56° C | 69% | 1014.4 hPa | 0 mm | - | 10 W/m² | - |
| 1777721446 | 10.56° C | 70% | 1014.3 hPa | 0 mm | - | 10 W/m² | - |
| 1777721144 | 10.56° C | 69% | 1014.2 hPa | 0 mm | - | 10 W/m² | - |
| 1777720841 | 10.56° C | 70% | 1014.3 hPa | 0 mm | - | 9 W/m² | - |
| 1777720538 | 10.56° C | 69% | 1014.1 hPa | 0 mm | - | 8 W/m² | - |
* Rain latest hour (hover to see other rain measurements)
** Current wind speed in m/s (hover to see current wind gust speed)